Showing default

CO3D4, 64901

Orbit data source: Space-Track

CO3D4, 64901 is a payload satellite owned by CNES (FR) in SSO that was launched on Sat, 26 Jul 2025 UTC via a VEGA C launch vehicle from the French Guiana (FRGUI). Payload-class satellites include a variety of spacecraft equipped with specific instruments for various scientific and technological missions. These include communications satellites like Starlink; space stations such as the ISS; scientific satellites like the Hubble; Earth observation satellites from companies like Planet Labs, Umbra, and HawkEye 360; GPS; miniature CubeSats for education and research; and military/defense satellites.

Loading next visibility...
Identifier
64901, 2025-156C
Orbit
SSO
Country
Flag of FRFR
Related business
Manufacturer
Airbus/Toulouse
Mission
Operational spacecraft
Bus & Motor
ASTROBUS-SE, Unknown motor
Mass
285 kg wet, 285 kg dry
Launch date (UTC)
2025-07-26 (1 month ago)
Launch vehicle
VEGA C
Launch site
French Guiana (FRGUI)
Object type
Payload
Rocket body
Debris
Shape & HBR
Unknown
Radar Cross Section
Large (>1 m²)

Expand to show TLE details & history
Last TLE update: 22 hours ago

TLE from 22 hours ago
0 CO3D4
1 64901U 25156C   25242.11520528  .00009659  00000-0  41547-3 0  9991
2 64901  97.4558 320.0448 0004681  92.2126 267.9646 15.22835748  5316
Epoch: 2025-08-30T02:45Z
TLE epoch observation values (Epoch: 2025-08-30T02:45:53.736Z)
Latitude
-0.00006°
Longitude
-59.98323°
Altitude
500.501 km
Speed
7.614 km/s
True Right ascension
21h 20m 10s
True Declination
0° 00' 00"
Sunlit
Object was in full shadow at epoch
Visualization orbit readout
Latitude
Unknown
Longitude
Unknown
Altitude
Unknown
Speed
Unknown
Apparent Right ascension
Unknown
Apparent Declination
Unknown
Sunlit
N/A
Visualization observer readout
Local Sidereal Time
16:11:59
Azimuth
Unknown
Elevation
Unknown
Doppler factor
Unknown
Orbital elements
Apogee altitude
497.473 km
Perigee altitude
491.039 km
Semi-major axis
6,872.393 km
Eccentricity
0.00047
Inclination
97.4558°
RAAN
320.0448°
Arg. of periapsis
92.2126°
True anomaly
267.91099°
Mean anomaly
267.9646°
Eccentric anomaly
267.9378°
Mean motion
3.80962 °/min
Orbital period
94.5 mins
BSTAR
0.00041547
Loading maneuver chart data...
Computing Atmospheric mass density...
Loading historical data...
Loading historical data...
Loading historical data...
Loading historical data...
Loading historical data...
Loading historical data...
Loading historical data...
Other satellites on launch #156 in the year 2025 (2025-07-26 UTC)

Documentation

Showing up to 5 results
|